Date String (YYYY-MM-DD hh:mm:ss) UTC,Instrument flags,Ambient pressure (hPa),Sample flow (lpm),Bypass flow (lpm),Sample temperature (°C),Ambient temperature (°C),ASC tube jacket temperature (°C),LED temperature (°C),Box temperature (°C),Sample RH (%),Span deviation,Mass concentration (μg/m³),Mass concentration (μg/m³),Mass concentration (μg/m³)
DateTimeUTC,F1_M11,P_M11,Q1_M11,Q2_M11,T1_M11,T2_M11,T3_M11,T4_M11,T5_M11,U1_M11,ZSPAN_M11,X2_M11,X0_M11,X1_M11
2022-05-12 12:00:00,,0819.0,5.01,0.00,28.2,27.3,00.0,37.3,30.0,28.1,-001.3,0011.83,0031.67,0008.17
2022-05-12 12:01:00,,0818.9,5.00,0.00,28.2,27.3,00.0,37.3,30.0,27.9,-001.3,0011.90,0032.60,0008.18
2022-05-12 12:02:00,,0818.9,5.00,0.00,28.2,27.3,00.0,37.3,30.0,28.0,-001.3,0011.93,0032.17,0008.20
2022-05-12 12:03:00,,0819.0,5.00,0.00,28.2,27.3,00.0,37.2,29.9,27.8,-001.4,0011.85,0032.26,0008.22
2022-05-12 12:04:00,,0819.0,5.00,0.00,28.2,27.3,00.0,37.2,29.9,27.8,-001.3,0011.77,0031.98,0008.21
2022-05-12 12:05:00,,0819.0,5.00,0.00,28.2,27.3,00.0,37.2,29.9,27.8,-001.3,0011.74,0032.13,0008.19
2022-05-12 12:06:00,,0818.9,4.99,0.00,28.1,27.2,00.0,37.2,29.9,27.9,-001.7,0011.66,0031.10,0008.19
2022-05-12 12:07:00,,0819.0,5.01,0.00,28.1,27.2,00.0,37.2,29.9,28.0,-001.8,0011.68,0031.03,0008.18
2022-05-12 12:08:00,,0819.0,5.00,0.00,28.1,27.2,00.0,37.2,29.9,28.6,-001.4,0011.75,0031.19,0008.18
2022-05-12 12:09:00,,0818.9,5.00,0.00,28.1,27.2,00.0,37.2,29.9,28.2,-001.2,0011.89,0032.63,0008.20
2022-05-12 12:10:00,,0819.0,5.00,0.00,28.1,27.2,00.0,37.2,29.9,27.7,-001.0,0011.80,0033.00,0008.18
2022-05-12 12:11:00,,0819.0,5.00,0.00,28.1,27.1,00.0,37.2,29.8,27.8,-001.2,0011.70,0031.91,0008.14
2022-05-12 12:12:00,,0819.0,5.00,0.00,28.0,27.1,00.0,37.1,29.8,27.5,-000.9,0011.63,0030.09,0008.11
2022-05-12 12:13:00,,0818.9,4.99,0.00,28.0,27.1,00.0,37.1,29.8,27.6,-001.0,0011.59,0029.58,0008.06
2022-05-12 12:14:00,,0818.9,5.00,0.00,28.0,27.0,00.0,37.1,29.8,27.5,-001.0,0011.55,0029.61,0008.00
2022-05-12 12:15:00,,0819.0,5.01,0.00,28.0,27.0,00.0,37.1,29.7,27.2,-000.9,0011.53,0030.11,0007.97
2022-05-12 12:16:00,,0819.0,5.01,0.00,28.0,27.0,00.0,37.1,29.7,26.7,-001.0,0011.46,0029.62,0007.93
2022-05-12 12:17:00,,0819.0,5.01,0.00,27.9,27.0,00.0,37.1,29.7,26.5,-000.4,0011.49,0030.30,0007.86
2022-05-12 12:18:00,,0819.1,5.00,0.00,27.9,27.0,00.0,37.0,29.7,26.4,-000.1,0011.44,0030.74,0007.80
2022-05-12 12:19:00,,0819.0,4.99,0.00,27.9,27.0,00.0,37.0,29.6,26.3,-000.3,0011.42,0030.95,0007.77
2022-05-12 12:20:00,,0818.9,4.99,0.00,27.9,26.9,00.0,37.0,29.7,26.3,-000.2,0011.25,0029.55,0007.69
2022-05-12 12:21:00,,0819.1,5.00,0.00,27.9,27.0,00.0,37.0,29.7,26.3,-000.4,0011.17,0028.54,0007.62
2022-05-12 12:22:00,,0819.2,5.01,0.00,27.9,27.0,00.0,37.0,29.7,26.4,-000.3,0011.11,0028.37,0007.57
2022-05-12 12:23:00,,0819.1,5.00,0.00,27.9,27.0,00.0,37.0,29.7,26.4,-000.4,0011.06,0028.84,0007.53
2022-05-12 12:24:00,,0819.1,5.01,0.00,27.9,27.0,00.0,37.0,29.7,26.2,-000.6,0010.99,0029.71,0007.49
2022-05-12 12:25:00,,0819.2,4.99,0.00,27.9,27.0,00.0,37.0,29.7,26.4,-000.5,0011.10,0029.37,0007.50
2022-05-12 12:26:00,,0819.2,4.99,0.00,27.9,27.0,00.0,37.0,29.7,26.6,-000.4,0011.15,0028.88,0007.50
2022-05-12 12:27:00,,0819.2,5.00,0.00,27.9,27.1,00.0,37.0,29.7,26.5,-000.0,0011.13,0029.03,0007.50
2022-05-12 12:28:00,,0819.2,5.00,0.00,27.9,27.1,00.0,37.0,29.7,26.5,-000.5,0011.14,0029.58,0007.53
2022-05-12 12:29:00,,0819.2,5.00,0.00,27.9,27.1,00.0,37.0,29.7,26.3,-001.0,0011.22,0028.73,0007.55
2022-05-12 12:30:00,,0819.2,5.00,0.00,27.9,27.1,00.0,36.9,29.7,25.6,-001.4,0011.12,0027.34,0007.53
2022-05-12 12:31:00,,0819.2,5.00,0.00,27.9,27.1,00.0,36.9,29.7,25.4,-001.6,0011.04,0027.55,0007.51
2022-05-12 12:32:00,,0819.2,4.99,0.00,27.9,27.1,00.0,36.9,29.7,25.1,-001.3,0011.15,0028.27,0007.50
2022-05-12 12:33:00,,0819.1,5.00,0.00,27.9,27.1,00.0,36.9,29.7,25.0,-001.0,0011.19,0028.53,0007.49
2022-05-12 12:34:00,,0819.0,5.00,0.00,27.9,27.1,00.0,36.9,29.7,24.9,-001.0,0011.17,0028.73,0007.46
2022-05-12 12:35:00,,0819.0,5.01,0.00,27.9,27.2,00.0,36.9,29.7,25.0,-000.6,0011.07,0027.16,0007.44
2022-05-12 12:36:00,,0818.9,5.00,0.00,27.9,27.2,00.0,36.9,29.8,25.2,-000.6,0010.98,0028.53,0007.39
2022-05-12 12:37:00,,0819.0,4.99,0.00,27.9,27.2,00.0,36.9,29.8,25.2,-000.6,0010.91,0028.56,0007.35
2022-05-12 12:38:00,,0819.1,5.00,0.00,27.9,27.1,00.0,36.9,29.7,25.2,-000.7,0010.89,0029.25,0007.31
2022-05-12 12:39:00,,0819.1,5.00,0.00,27.9,27.1,00.0,36.9,29.7,25.1,-000.6,0010.77,0028.87,0007.24
2022-05-12 12:40:00,,0819.0,5.00,0.00,27.9,27.1,00.0,36.9,29.7,25.1,-000.3,0010.63,0028.82,0007.20
2022-05-12 12:41:00,,0819.0,5.01,0.00,27.9,27.1,00.0,36.9,29.7,25.0,-000.2,0010.63,0029.51,0007.18
2022-05-12 12:42:00,,0819.0,5.00,0.00,27.9,27.2,00.0,36.9,29.8,24.8,-000.4,0010.67,0029.55,0007.17
2022-05-12 12:43:00,,0819.0,4.99,0.00,27.9,27.2,00.0,36.9,29.8,25.4,-000.5,0010.60,0030.01,0007.18
2022-05-12 12:44:00,,0819.0,5.01,0.00,27.9,27.2,00.0,36.9,29.8,26.4,-000.7,0010.61,0030.11,0007.24
2022-05-12 12:45:00,,0819.1,5.01,0.00,28.0,27.2,00.0,36.9,29.7,26.8,-000.7,0010.60,0029.86,0007.32
2022-05-12 12:46:00,,0819.0,4.99,0.00,28.0,27.2,00.0,36.9,29.8,26.9,-000.5,0010.71,0029.59,0007.39
2022-05-12 12:47:00,,0818.9,5.00,0.00,28.0,27.2,00.0,36.9,29.8,27.2,-000.4,0010.81,0028.92,0007.46
2022-05-12 12:48:00,,0819.0,5.00,0.00,28.0,27.2,00.0,36.9,29.8,27.7,-000.5,0010.93,0028.66,0007.55
2022-05-12 12:49:00,,0819.0,5.00,0.00,28.0,27.3,00.0,36.9,29.8,27.7,-000.6,0011.04,0028.60,0007.64
2022-05-12 12:50:00,,0818.9,5.01,0.00,28.0,27.3,00.0,36.9,29.9,27.5,-000.5,0011.17,0029.07,0007.74
2022-05-12 12:51:00,,0818.9,4.99,0.00,28.0,27.3,00.0,37.0,29.9,27.3,-000.5,0011.35,0030.22,0007.84
2022-05-12 12:52:00,,0818.9,5.00,0.00,28.1,27.4,00.0,37.0,29.9,27.3,-000.3,0011.42,0030.13,0007.92
2022-05-12 12:53:00,,0818.9,4.99,0.00,28.1,27.4,00.0,37.0,30.0,27.5,-000.2,0011.46,0030.04,0008.00
2022-05-12 12:54:00,,0818.9,5.00,0.00,28.1,27.5,00.0,37.0,30.0,27.7,-000.4,0011.67,0029.70,0008.10
2022-05-12 12:55:00,,0818.9,5.01,0.00,28.1,27.4,00.0,37.0,30.0,27.8,-000.6,0011.75,0029.63,0008.15
2022-05-12 12:56:00,,0818.8,5.01,0.00,28.1,27.4,00.0,37.0,30.0,27.7,-000.9,0011.87,0029.99,0008.18
2022-05-12 12:57:00,,0818.9,5.00,0.00,28.1,27.4,00.0,37.0,30.0,27.7,-001.2,0011.91,0031.82,0008.19
2022-05-12 12:58:00,,0819.0,4.99,0.00,28.1,27.5,00.0,37.0,30.0,27.8,-001.2,0011.92,0032.13,0008.21
2022-05-12 12:59:00,,0819.0,5.00,0.00,28.2,27.5,00.0,37.0,30.0,27.7,-001.1,0011.85,0032.26,0008.18
